Regional Weather Roundup
Issued by NWS

Home | Current Version | Previous Version | Graphics & Text | Print | Product List | Glossary On
Versions: 1 2 3 4 5 6 7 8 9 10 11 12 13 14 15 16 17 18 19 20 21 22 23 24 25 26 27 28 29 30 31 32 33 34 35 36 37 38 39 40 41 42 43 44 45 46 47 48 49 50
000
ASUS45 KABQ 302001
RWRNM
WEATHER ROUNDUP FOR NEW MEXICO
NATIONAL WEATHER SERVICE ALBUQUERQUE NM
200 PM MDT SAT AUG 30 2014

NOTE: "FAIR" MEANS FEW OR NO CLOUDS BELOW 12,000 FEET AGL WITH NO
       SIGNIFICANT WEATHER OR OBSTRUCTIONS TO VISION.

      THIS PRODUCT IS RELEASED AS TWO VERSIONS.  ONE VERSION NEAR
      THE TOP OF THE HOUR CONTAINING PRELIMINARY DATA FROM ALBUQUERQUE
      AND OTHER STATIONS.  A FINAL VERSION WITH ADDITIONAL DATA IS
      ISSUED ABOUT 10 MINUTES AFTER THE HOUR.

NMZ501-503-504-510>518-302100-
NORTHWEST PLATEAU/NORTHCENTRAL MOUNTAINS

CITY           SKY/WX    TMP DP  RH WIND       PRES   REMARKS
FARMINGTON     SUNNY     87  32  14 W9        30.10F
LOS ALAMOS     SUNNY     77  40  26 S14G22    30.24F
SANTA FE       SUNNY     81  39  22 W3G17     30.18F
ANGEL FIRE     FAIR      70  31  23 W17       30.32F

$$
NMZ402-403-502-505>509-302100-
WESTCENTRAL MOUNTAINS/SOUTHWEST MOUNTAINS

CITY           SKY/WX    TMP DP  RH WIND       PRES   REMARKS
GALLUP         MOSUNNY   86  31  13 W14       30.19F
SILVER CITY    SUNNY     88  37  16 W3        30.16F

$$
NMZ407-409-411-412-302100-
SOUTHERN DESERTS

CITY           SKY/WX    TMP DP  RH WIND       PRES   REMARKS
LORDSBURG      FAIR      91  41  17 CALM      30.05F
DEMING         SUNNY     93  37  14 S12       30.06F
LAS CRUCES     SUNNY     93  36  13 CALM      30.08F
HOLLOMAN AFB   MOSUNNY   93  45  19 S12       30.03F
ALAMOGORDO     MOSUNNY   91  43  18 SW6       30.06F
T OR C         SUNNY     91  40  16 VRB3      30.08F

$$
NMZ519>523-302100-
CENTRAL VALLEYS/CENTRAL HIGHLANDS

CITY           SKY/WX    TMP DP  RH WIND       PRES   REMARKS
ALBUQUERQUE    MOSUNNY   85  41  21 S7        30.13F
DOUBLE EAGLE   MOSUNNY   82  45  26 S9        30.16F
CLINES CORNERS MOSUNNY   81  41  24 SW14G26   30.23F
BELEN          FAIR      87  43  21 SW3       30.11F
SOCORRO        PTSUNNY   90  41  18 SW12G23   30.08F

$$
NMZ524>526-539-540-302100-
SOUTHCENTRAL MOUNTAINS

CITY           SKY/WX    TMP DP  RH WIND       PRES   REMARKS
RUIDOSO        NOT AVBL

$$
NMZ527>531-302100-
NORTHEAST HIGHLANDS/NORTHEAST PLAINS

CITY           SKY/WX    TMP DP  RH WIND       PRES   REMARKS
LAS VEGAS      PTSUNNY   83  39  21 SW21G30   30.20F
RATON          SUNNY     82  37  20 S7        30.11F
CLAYTON        MOSUNNY   87  47  24 SW21G29   30.05F

$$
NMZ532>537-302100-
EASTCENTRAL PLAINS

CITY           SKY/WX    TMP DP  RH WIND       PRES   REMARKS
TUCUMCARI      MOSUNNY   95  43  16 SW16G26   30.00F
CANNON AFB     MOSUNNY   90  48  24 S14G20    30.05F
CLOVIS AIRPORT   N/A     90  46  22 S12G21    30.08F

$$
NMZ028-029-538-302100-
SOUTHEAST PLAINS

CITY           SKY/WX    TMP DP  RH WIND       PRES   REMARKS
ROSWELL        SUNNY     94  50  22 S12       30.01F
CARLSBAD       SUNNY     96  39  13 SE10      29.99F
HOBBS          MOSUNNY   90  45  20 SE7       30.05F


$$



USA.gov is the U.S. government's official web portal to all federal, state and local government web resources and services.